EW9355 Weather Reports


Display with metric or nautical units.
time (UTC)temp
F
wind
direction
speed
MPH
gust
MPH
rain 1hr
in
rain 24hr
in
rain mn
in
humidity
%
barometer
mb
20260509160006 79 80 0.0 5.0 0.00 0.00 0.00 73 1007.7
20260509154503 78 5 2.0 6.0 0.00 0.00 0.00 73 1007.6
20260509153100 77 74 0.0 6.0 0.00 0.00 0.00 75 1007.7
20260509151607 77 349 0.0 4.0 0.00 0.00 0.00 76 1007.6
20260509150109 76 39 0.0 5.0 0.00 0.00 0.00 78 1007.7
20260509144559 75 31 0.0 6.0 0.00 0.00 0.00 79 1008.0
20260509143054 74 18 0.0 6.0 0.00 0.00 0.00 81 1007.7
20260509141546 73 355 0.0 8.0 0.00 0.00 0.00 83 1007.5
20260509140043 72 5 1.0 4.0 0.00 0.00 0.00 84 1007.6
20260509134540 72 360 0.0 4.0 0.00 0.00 0.00 86 1007.6
20260509133037 71 17 0.0 8.0 0.00 0.00 0.00 88 1007.5
20260509131535 70 262 0.0 4.0 0.00 0.00 0.00 89 1007.2
20260509130035 70 212 1.0 3.0 0.00 0.00 0.00 89 1007.1
20260509124540 69 255 0.0 4.0 0.00 0.00 0.00 90 1007.2
20260509123034 69 261 0.0 4.0 0.00 0.00 0.00 91 1007.3
20260509121549 69 271 0.0 1.0 0.00 0.00 0.00 91 1007.2
20260509120032 69 271 0.0 0.0 0.00 0.00 0.00 91 1007.1
20260509114548 69 271 0.0 0.0 0.00 0.00 0.00 91 1006.9
20260509113030 69 271 0.0 0.0 0.00 0.00 0.00 90 1006.4
20260509111531 69 271 0.0 0.0 0.00 0.00 0.00 90 1006.3
20260509110029 70 271 0.0 0.0 0.00 0.00 0.00 90 1006.1
20260509104528 70 271 0.0 0.0 0.00 0.00 0.00 90 1006.1
20260509103027 70 271 0.0 0.0 0.00 0.00 0.00 90 1006.2
20260509101526 70 271 0.0 0.0 0.00 0.00 0.00 90 1006.0
20260509100026 70 271 0.0 0.0 0.00 0.00 0.00 91 1006.0
20260509094531 69 271 0.0 0.0 0.00 0.00 0.00 91 1005.9
20260509093024 69 271 0.0 2.0 0.00 0.00 0.00 90 1005.4
20260509091525 69 271 0.0 4.0 0.00 0.00 0.00 90 1004.5
20260509090050 69 199 0.0 7.0 0.00 0.00 0.00 90 1003.8
20260509084524 70 119 0.0 5.0 0.00 0.00 0.00 90 1004.4
20260509083039 70 119 0.0 3.0 0.00 0.00 0.00 89 1005.2
20260509081524 70 165 0.0 1.0 0.00 0.00 0.00 88 1006.0
20260509080014 71 165 0.0 2.0 0.00 0.00 0.00 88 1006.5
20260509074524 70 243 0.0 1.0 0.00 0.03 0.00 88 1007.1
20260509073008 70 243 0.0 3.0 0.00 0.03 0.00 88 1007.4
20260509071508 70 242 0.0 3.0 0.00 0.03 0.00 89 1007.8
20260509070007 70 196 0.0 0.0 0.00 0.03 0.00 88 1007.7
20260509064505 70 196 0.0 0.0 0.00 0.03 0.00 88 1007.3
20260509063003 70 165 0.0 0.0 0.00 0.03 0.00 87 1007.4
20260509061504 70 165 0.0 0.0 0.00 0.03 0.00 87 1007.4
20260509060002 70 165 0.0 0.0 0.00 0.03 0.00 86 1008.0
20260509054600 71 165 0.0 0.0 0.00 0.03 0.00 85 1008.1
20260509053059 71 165 0.0 0.0 0.00 0.03 0.00 85 1008.5
20260509051602 71 165 0.0 0.0 0.00 0.03 0.00 84 1008.0
20260509050100 71 165 0.0 0.0 0.00 0.03 0.00 83 1007.4
20260509044554 72 165 0.0 0.0 0.00 0.03 0.03 82 1007.3
20260509043051 72 165 0.0 0.0 0.00 0.03 0.03 81 1007.2
20260509041552 72 115 0.0 0.0 0.00 0.03 0.03 80 1007.3
20260509040051 72 114 0.0 0.0 0.00 0.03 0.03 80 1008.0
20260509034553 72 114 0.0 0.0 0.00 0.03 0.03 80 1007.8
20260509033104 72 114 0.0 0.0 0.00 0.03 0.03 80 1007.3
20260509031619 72 114 0.0 2.0 0.00 0.03 0.03 80 1007.2
20260509030049 72 114 0.0 0.0 0.00 0.03 0.03 80 1007.1
20260509024557 72 113 0.0 0.0 0.00 0.03 0.03 80 1006.7
20260509023048 72 113 0.0 0.0 0.00 0.03 0.03 79 1006.5
20260509021547 72 113 0.0 0.0 0.00 0.03 0.03 79 1006.2
20260509020048 73 113 0.0 0.0 0.00 0.03 0.03 78 1006.3
20260509014547 73 112 0.0 0.0 0.00 0.03 0.03 78 1006.4
20260509013049 73 109 0.0 0.0 0.00 0.03 0.03 77 1006.3
20260509011548 73 98 0.0 0.0 0.00 0.03 0.03 77 1006.0
20260509010044 73 98 0.0 1.0 0.00 0.03 0.03 77 1005.7
20260509004555 73 98 0.0 1.0 0.00 0.03 0.03 76 1005.6
20260509003046 73 113 0.0 2.0 0.00 0.03 0.03 75 1005.5
20260509001544 74 138 0.0 2.0 0.00 0.03 0.03 74 1005.7
20260509000045 74 138 0.0 2.0 0.00 0.03 0.03 73 1005.9
20260508234539 74 139 0.0 1.0 0.00 0.03 0.03 72 1005.9
20260508233039 75 151 0.0 1.0 0.00 0.03 0.03 71 1006.0
20260508231544 75 109 0.0 3.0 0.00 0.03 0.03 69 1006.2
20260508230037 75 146 0.0 4.0 0.00 0.03 0.03 69 1006.0
20260508224558 75 126 0.0 4.0 0.00 0.03 0.03 69 1006.2
20260508223036 75 124 0.0 3.0 0.00 0.03 0.03 69 1006.0
20260508221544 75 157 0.0 6.0 0.00 0.03 0.03 68 1006.1
20260508220035 75 139 0.0 5.0 0.00 0.03 0.03 68 1006.1
20260508214539 77 250 0.0 3.0 0.00 0.03 0.03 66 1006.2
20260508213036 75 119 0.0 4.0 0.00 0.03 0.03 69 1006.1
20260508211530 74 96 0.0 3.0 0.00 0.03 0.03 70 1006.2
20260508210027 73 128 0.0 2.0 0.00 0.03 0.03 70 1007.0
20260508204524 73 163 0.0 2.0 0.00 0.03 0.03 70 1007.8
20260508203022 74 249 0.0 2.0 0.00 0.03 0.03 69 1008.1
20260508201522 74 135 0.0 4.0 0.00 0.03 0.03 69 1008.2
20260508200035 74 131 0.0 4.0 0.00 0.03 0.03 68 1008.1
20260508194519 76 103 0.0 4.0 0.00 0.03 0.03 67 1008.0
20260508193020 76 144 0.0 3.0 0.00 0.03 0.03 65 1008.3
20260508191516 76 250 0.0 8.0 0.00 0.03 0.03 66 1008.3
20260508190019 75 123 0.0 7.0 0.00 0.03 0.03 66 1008.6
20260508184523 76 130 1.0 9.0 0.00 0.03 0.03 64 1008.6
20260508183014 77 114 1.0 8.0 0.00 0.03 0.03 62 1008.6
20260508181508 76 130 0.0 6.0 0.00 0.03 0.03 65 1009.0
20260508180006 76 151 2.0 8.0 0.00 0.03 0.03 63 1009.3
20260508174502 76 135 0.0 6.0 0.00 0.03 0.03 63 1009.6
20260508173109 76 124 0.0 6.0 0.00 0.03 0.03 63 1009.7
20260508171558 74 141 0.0 3.0 0.00 0.03 0.03 65 1009.8
20260508170052 73 204 0.0 6.0 0.00 0.03 0.03 67 1010.4
20260508164550 72 171 0.0 3.0 0.00 0.03 0.03 66 1010.9
20260508163050 72 146 0.0 6.0 0.00 0.03 0.03 65 1011.2
20260508161548 73 142 3.0 9.0 0.00 0.03 0.03 64 1011.2